Mount Pleasant, MI

1:55 AM EDT on March 24, 2017 (GMT -0400)
Mount Pleasant Municipal

Weather History for KMOP - May, 2014

Change the Weather History Date:

Sunday, May 18, 2014

  Actual Average (KAMN) Record (KAMN)
Temperature  
Mean Temperature 54 °F -  
Max Temperature 66 °F 72 °F 92 °F (1962)
Min Temperature 43 °F 46 °F 30 °F (1973)
Degree Days  
Heating Degree Days 10    
Growing Degree Days 4 (Base 50)    
Moisture  
Dew Point 35 °F    
Average Humidity 47    
Maximum Humidity 78    
Minimum Humidity 30    
Precipitation  
Precipitation 0.00 in - - ()
Sea Level Pressure  
Sea Level Pressure 30.17 in    
Wind  
Wind Speed 8 mph (SW)    
Max Wind Speed 18 mph    
Max Gust Speed 30 mph    
Visibility 10 miles    
Events      
Averages and records for this station are not official NWS values.
T = Trace of Precipitation, MM = Missing Value Source: NWS Daily Summary

Daily Weather History Graph

Daily Weather History Graph

Search for Another Location

Airport or City:

Trip Planner

Search our weather history database for the weather conditions in past years. The results will help you decide how hot, cold, wet, or windy it might be!

Date:

Astronomy

May. 18, 2014 Rise Set
Actual Time 6:10 AM EDT 9:00 PM EDT
Civil Twilight 5:37 AM EDT 9:34 PM EDT
Nautical Twilight 4:55 AM EDT 10:16 PM EDT
Astronomical Twilight 4:06 AM EDT 11:06 PM EDT
Moon No Moon Rise 10:00 AM EDT (5/18)
Length of Visible Light 15h 56m
Length of Day
14h 49m
Waning Gibbous, 81% of the Moon is Illuminated
May 18
Waning Gibbous
May 21
Last Quarter
May 28
New
Jun 5
First Quarter
Jun 13
Full

Hourly Weather History & Observations

Time (EDT) Temp. Windchill Dew Point Humidity Pressure Visibility Wind Dir Wind Speed Gust Speed Precip Events Conditions
12:15 AM 45.7 °F 44.4 °F 31.1 °F 57% 30.13 in 10.0 mi South 3.5 mph - N/A   Scattered Clouds
12:35 AM 45.5 °F 43.2 °F 31.6 °F 58% 30.13 in 10.0 mi SSW 4.6 mph - N/A   Mostly Cloudy
12:55 AM 46.2 °F 45.0 °F 32.0 °F 58% 30.14 in 10.0 mi SSW 3.5 mph - N/A   Overcast
1:15 AM 47.1 °F - 32.0 °F 56% 30.14 in 10.0 mi SW 5.8 mph - N/A   Overcast
1:35 AM 46.6 °F - 32.2 °F 57% 30.14 in 10.0 mi West 4.6 mph - N/A   Mostly Cloudy
1:55 AM 46.9 °F - 32.0 °F 56% 30.14 in 10.0 mi SSW 4.6 mph - N/A   Overcast
2:16 AM 47.7 °F - 32.0 °F 55% 30.14 in 10.0 mi SSW 5.8 mph - N/A   Mostly Cloudy
2:35 AM 47.3 °F - 32.0 °F 55% 30.14 in 10.0 mi SW 5.8 mph - N/A   Mostly Cloudy
2:55 AM 47.7 °F - 32.0 °F 55% 30.14 in 10.0 mi SW 8.1 mph - N/A   Overcast
3:16 AM 48.2 °F - 32.2 °F 54% 30.14 in 10.0 mi SSW 6.9 mph - N/A   Overcast
3:35 AM 47.3 °F - 32.4 °F 56% 30.14 in 10.0 mi SSW 6.9 mph - N/A   Overcast
3:55 AM 46.9 °F - 32.4 °F 57% 30.14 in 10.0 mi South 4.6 mph - N/A   Overcast
4:15 AM 45.9 °F 42.9 °F 32.5 °F 60% 30.14 in 10.0 mi SSW 5.8 mph - N/A   Scattered Clouds
4:35 AM 44.8 °F 41.6 °F 32.9 °F 63% 30.15 in 10.0 mi SSW 5.8 mph - N/A   Scattered Clouds
4:55 AM 44.6 °F 42.2 °F 33.3 °F 64% 30.14 in 10.0 mi SSW 4.6 mph - N/A   Mostly Cloudy
5:15 AM 44.2 °F 42.7 °F 33.3 °F 65% 30.15 in 10.0 mi SSW 3.5 mph - N/A   Scattered Clouds
5:35 AM 43.9 °F 42.3 °F 33.4 °F 67% 30.15 in 10.0 mi SW 3.5 mph - N/A   Clear
5:55 AM 43.7 °F 41.1 °F 33.8 °F 68% 30.15 in 10.0 mi SW 4.6 mph - N/A   Clear
6:15 AM 43.3 °F 40.7 °F 33.8 °F 69% 30.16 in 10.0 mi SSW 4.6 mph - N/A   Clear
6:35 AM 44.2 °F 40.3 °F 34.7 °F 69% 30.16 in 10.0 mi SW 6.9 mph - N/A   Clear
6:55 AM 45.3 °F 42.3 °F 34.9 °F 67% 30.16 in 10.0 mi WSW 5.8 mph - N/A   Clear
7:15 AM 46.2 °F 42.2 °F 35.2 °F 66% 30.17 in 10.0 mi SW 8.1 mph - N/A   Clear
7:35 AM 47.3 °F - 35.8 °F 64% 30.17 in 10.0 mi WSW 9.2 mph - N/A   Clear
7:55 AM 48.6 °F - 36.0 °F 62% 30.17 in 10.0 mi WSW 10.4 mph - N/A   Clear
8:36 AM 51.6 °F - 36.0 °F 55% 30.18 in 10.0 mi WSW 10.4 mph - N/A   Clear
8:55 AM 53.8 °F - 36.1 °F 51% 30.18 in 10.0 mi WSW 12.7 mph 16.1 mph N/A   Clear
9:15 AM 55.4 °F - 35.8 °F 48% 30.18 in 10.0 mi WSW 11.5 mph 16.1 mph N/A   Clear
9:36 AM 56.5 °F - 35.4 °F 45% 30.18 in 10.0 mi WSW 13.8 mph 18.4 mph N/A   Clear
9:55 AM 57.4 °F - 34.9 °F 43% 30.18 in 10.0 mi SW 15.0 mph 20.7 mph N/A   Clear
10:15 AM 59.0 °F - 35.2 °F 41% 30.19 in 10.0 mi WSW 13.8 mph 18.4 mph N/A   Clear
10:35 AM 59.4 °F - 34.9 °F 40% 30.19 in 10.0 mi WSW 15.0 mph 19.6 mph N/A   Clear
10:55 AM 60.4 °F - 34.2 °F 37% 30.19 in 10.0 mi WSW 15.0 mph 19.6 mph N/A   Clear
11:15 AM 61.2 °F - 34.0 °F 36% 30.19 in 10.0 mi West 13.8 mph 20.7 mph N/A   Clear
11:35 AM 62.1 °F - 34.3 °F 35% 30.19 in 10.0 mi West 15.0 mph 21.9 mph N/A   Clear
11:55 AM 62.8 °F - 34.9 °F 35% 30.19 in 10.0 mi SW 12.7 mph 21.9 mph N/A   Clear
12:16 PM 63.5 °F - 36.0 °F 36% 30.19 in 10.0 mi SW 12.7 mph - N/A   Clear
12:35 PM 64.0 °F - 35.1 °F 34% 30.19 in 10.0 mi SW 16.1 mph 21.9 mph N/A   Clear
12:55 PM 64.4 °F - 35.1 °F 34% 30.18 in 10.0 mi WSW 13.8 mph 18.4 mph N/A   Clear
1:15 PM 64.4 °F - 34.9 °F 33% 30.18 in 10.0 mi SSW 12.7 mph 20.7 mph N/A   Clear
1:35 PM 65.1 °F - 36.1 °F 34% 30.18 in 10.0 mi SW 12.7 mph 20.7 mph N/A   Clear
1:55 PM 65.3 °F - 36.0 °F 34% 30.18 in 10.0 mi SW 13.8 mph 23.0 mph N/A   Clear
2:15 PM 65.3 °F - 35.2 °F 33% 30.17 in 10.0 mi SW 16.1 mph 23.0 mph N/A   Clear
2:35 PM 65.7 °F - 35.1 °F 32% 30.17 in 10.0 mi SW 17.3 mph 23.0 mph N/A   Clear
2:55 PM 65.7 °F - 34.9 °F 32% 30.17 in 10.0 mi SW 17.3 mph 25.3 mph N/A   Clear
3:15 PM 66.6 °F - 36.1 °F 33% 30.17 in 10.0 mi SW 18.4 mph 29.9 mph N/A   Scattered Clouds
3:35 PM 66.2 °F - 35.1 °F 32% 30.17 in 10.0 mi SW 13.8 mph 24.2 mph N/A   Scattered Clouds
3:55 PM 66.6 °F - 36.5 °F 33% 30.16 in 10.0 mi SW 15.0 mph 21.9 mph N/A   Scattered Clouds
4:15 PM 64.2 °F - 34.3 °F 33% 30.16 in 10.0 mi SSW 13.8 mph 24.2 mph N/A   Scattered Clouds
4:36 PM 63.9 °F - 34.7 °F 34% 30.16 in 10.0 mi SW 15.0 mph 18.4 mph N/A   Clear
4:55 PM 65.8 °F - 34.7 °F 32% 30.16 in 10.0 mi SW 16.1 mph 19.6 mph N/A   Clear
5:15 PM 66.7 °F - 34.5 °F 30% 30.16 in 10.0 mi SW 13.8 mph - N/A   Clear
5:35 PM 66.4 °F - 34.2 °F 30% 30.16 in 10.0 mi WSW 13.8 mph 27.6 mph N/A   Clear
5:55 PM 65.7 °F - 34.3 °F 31% 30.16 in 10.0 mi SW 11.5 mph 19.6 mph N/A   Clear
6:15 PM 65.7 °F - 35.2 °F 32% 30.16 in 10.0 mi SW 15.0 mph 18.4 mph N/A   Clear
6:35 PM 65.3 °F - 34.5 °F 32% 30.16 in 10.0 mi SW 12.7 mph 18.4 mph N/A   Clear
6:55 PM 65.1 °F - 35.4 °F 33% 30.16 in 10.0 mi SW 11.5 mph 17.3 mph N/A   Clear
7:15 PM 64.6 °F - 34.9 °F 33% 30.16 in 10.0 mi SW 11.5 mph - N/A   Clear
7:35 PM 64.2 °F - 35.4 °F 34% 30.16 in 10.0 mi WSW 10.4 mph - N/A   Clear
7:55 PM 63.3 °F - 35.4 °F 35% 30.17 in 10.0 mi SSW 8.1 mph 17.3 mph N/A   Clear
8:15 PM 62.4 °F - 35.1 °F 36% 30.17 in 10.0 mi SSW 9.2 mph - N/A   Clear
8:35 PM 61.3 °F - 35.1 °F 37% 30.17 in 10.0 mi SSW 9.2 mph - N/A   Clear
8:55 PM 60.1 °F - 35.8 °F 40% 30.17 in 10.0 mi SSW 5.8 mph - N/A   Clear
9:16 PM 58.6 °F - 36.3 °F 43% 30.17 in 10.0 mi South 3.5 mph - N/A   Clear
9:35 PM 58.5 °F - 36.5 °F 44% 30.17 in 10.0 mi South 3.5 mph - N/A   Clear
9:55 PM 56.8 °F - 37.0 °F 48% 30.18 in 10.0 mi SSW 3.5 mph - N/A   Clear
10:15 PM 55.6 °F - 38.5 °F 53% 30.18 in 10.0 mi WSW 3.5 mph - N/A   Clear
10:35 PM 54.1 °F - 39.2 °F 57% 30.18 in 10.0 mi Calm Calm - N/A   Clear
10:55 PM 52.5 °F - 41.9 °F 67% 30.18 in 10.0 mi SW 3.5 mph - N/A   Clear
11:15 PM 51.3 °F - 44.1 °F 76% 30.18 in 10.0 mi SW 3.5 mph - N/A   Clear
11:35 PM 50.0 °F - 42.4 °F 75% 30.19 in 10.0 mi Calm Calm - N/A   Clear
11:55 PM 49.5 °F - 43.0 °F 78% 30.19 in 10.0 mi Calm Calm - N/A   Clear